Location: Grums
(59.3529°N, 13.1129°E)
Time: 00:11:46
(UTC+01:00)

SEEDS - Pass Details

Date: 04 December 2021
Orbit: 584 x 600 km, 97.6° (Epoch: 27 January)

Event Time Altitude Azimuth Distance (km) Brightness Sun altitude
Rises 16:15:09 0° 189° (S) 2,823 ? -7.0°
Reaches altitude 10° 16:17:28 10° 198° (SSW) 1,923 ? -7.3°
Maximum altitude 16:21:17 34° 264° (W) 980 ? -7.7°
Drops below altitude 10° 16:25:07 10° 331° (NNW) 1,929 ? -8.1°
Sets 16:27:27 0° 341° (NNW) 2,832 ? -8.4°
